{"data":{"norad_id":63697,"intl_designator":"2025-087A","name":"STARLINK-33894","alt_names":[],"object_type":"PAYLOAD","status":"ACTIVE","operator":null,"country":"US","launch_date":"2025-04-28","launch_site_code":"AFWTR","launch_vehicle":null,"mission":null,"orbit_class":"UNKNOWN","rcs_meters":null,"size_class":null,"mass_kg":null,"dimensions":null,"purposes":["comms"],"wikipedia_slug":null,"has_3d_model":false,"image_url":null,"decayed_at":null,"tle_current":{"epoch":"2026-09-20T20:12:35.095104Z","epoch_age_seconds":123075,"freshness":"FRESH","line1":"1 63697U 25087A   26263.84207286  .00010049  00000+0  30822-3 0  9990","line2":"2 63697  53.1594  28.4631 0000882 111.1738 248.9359 15.34392869 79145","mean_motion":15.34392869,"eccentricity":8.82e-5,"inclination_deg":53.1594,"raan_deg":28.4631,"arg_perigee_deg":111.1738,"mean_anomaly_deg":248.9359,"bstar":0.00030822,"rev_number":7914,"period_min":93.848194233233,"perigee_km":462.1210711454,"apogee_km":463.32779910256,"semimajor_km":6840.861435124,"source":"CELESTRAK","updated_at":"2026-09-21T09:00:35.061938Z"}}}